TimeCST,TemperatureF,Dew PointF,Humidity,Sea Level PressureIn,VisibilityMPH,Wind Direction,Wind SpeedMPH,Gust SpeedMPH,PrecipitationIn,Events,Conditions,WindDirDegrees,DateUTC
12:15 AM,26.6,24.8,93,30.44,8.0,Calm,Calm,-,N/A,,Clear,0,2012-12-30 06:15:00
12:35 AM,26.6,23.0,86,30.43,7.0,Calm,Calm,-,N/A,,Unknown,0,2012-12-30 06:35:00
12:55 AM,26.6,24.8,93,30.43,7.0,Calm,Calm,-,N/A,,Clear,0,2012-12-30 06:55:00
1:15 AM,26.6,24.8,93,30.42,7.0,Calm,Calm,-,N/A,,Clear,0,2012-12-30 07:15:00
1:35 AM,26.6,26.6,100,30.43,6.0,Calm,Calm,-,N/A,,Clear,0,2012-12-30 07:35:00
2:15 AM,26.6,24.8,93,30.44,5.0,Calm,Calm,-,N/A,,Clear,0,2012-12-30 08:15:00
2:35 AM,24.8,23.0,93,30.45,5.0,Calm,Calm,-,N/A,,Clear,0,2012-12-30 08:35:00
3:15 AM,24.8,24.8,100,30.46,5.0,Calm,Calm,-,N/A,,Clear,0,2012-12-30 09:15:00
3:35 AM,26.6,26.6,100,30.47,6.0,Calm,Calm,-,N/A,,Clear,0,2012-12-30 09:35:00
3:55 AM,26.6,26.6,100,30.47,6.0,Calm,Calm,-,N/A,,Clear,0,2012-12-30 09:55:00
4:15 AM,23.0,23.0,100,30.47,5.0,Calm,Calm,-,N/A,,Clear,0,2012-12-30 10:15:00
4:35 AM,23.0,23.0,100,30.47,4.0,Calm,Calm,-,N/A,,Clear,0,2012-12-30 10:35:00
4:55 AM,23.0,23.0,100,30.46,5.0,Calm,Calm,-,N/A,,Clear,0,2012-12-30 10:55:00
5:15 AM,23.0,23.0,100,30.48,5.0,Calm,Calm,-,N/A,,Clear,0,2012-12-30 11:15:00
5:35 AM,23.0,23.0,100,30.49,5.0,Calm,Calm,-,N/A,,Clear,0,2012-12-30 11:35:00
6:15 AM,23.0,23.0,100,30.51,4.0,Calm,Calm,-,N/A,,Clear,0,2012-12-30 12:15:00
6:35 AM,21.2,21.2,100,30.53,5.0,Calm,Calm,-,N/A,,Clear,0,2012-12-30 12:35:00
7:15 AM,23.0,23.0,100,30.53,4.0,North,-9999.0,-,N/A,,Clear,0,2012-12-30 13:15:00
7:55 AM,26.6,26.6,100,30.54,3.0,Calm,Calm,-,N/A,,Clear,0,2012-12-30 13:55:00
8:15 AM,-9999,-9999,N/A,30.55,3.0,Calm,Calm,-,N/A,,Clear,0,2012-12-30 14:15:00
8:35 AM,30.2,30.2,100,30.55,4.0,North,3.5,-,N/A,,Clear,360,2012-12-30 14:35:00
8:55 AM,32.0,32.0,100,30.56,4.0,North,3.5,-,N/A,,Clear,350,2012-12-30 14:55:00
9:15 AM,32.0,32.0,100,30.57,5.0,NNE,3.5,-,N/A,,Clear,20,2012-12-30 15:15:00
9:35 AM,33.8,32.0,93,30.57,6.0,NNE,4.6,-,N/A,,Clear,20,2012-12-30 15:35:00
9:55 AM,35.6,32.0,87,30.57,8.0,NNE,5.8,-,N/A,,Clear,20,2012-12-30 15:55:00
10:15 AM,37.4,33.8,87,30.57,8.0,North,3.5,-,N/A,,Clear,360,2012-12-30 16:15:00
10:35 AM,37.4,33.8,87,30.56,9.0,Calm,Calm,-,N/A,,Clear,0,2012-12-30 16:35:00
10:55 AM,39.2,33.8,81,30.55,8.0,North,3.5,-,N/A,,Clear,360,2012-12-30 16:55:00
11:15 AM,41.0,33.8,76,30.53,8.0,North,3.5,-,N/A,,Clear,10,2012-12-30 17:15:00
11:35 AM,42.8,33.8,70,30.51,9.0,North,4.6,-,N/A,,Clear,360,2012-12-30 17:35:00
11:55 AM,44.6,35.6,71,30.50,10.0,East,3.5,-,N/A,,Clear,80,2012-12-30 17:55:00
12:15 PM,44.6,35.6,71,30.49,9.0,NW,4.6,-,N/A,,Clear,320,2012-12-30 18:15:00
12:35 PM,46.4,37.4,71,30.48,9.0,SE,3.5,-,N/A,,Clear,140,2012-12-30 18:35:00
12:55 PM,46.4,37.4,71,30.47,9.0,Calm,Calm,-,N/A,,Clear,0,2012-12-30 18:55:00
1:15 PM,46.4,37.4,71,30.47,9.0,Calm,Calm,-,N/A,,Clear,0,2012-12-30 19:15:00
1:55 PM,48.2,37.4,66,30.45,9.0,North,4.6,-,N/A,,Clear,10,2012-12-30 19:55:00
2:15 PM,48.2,39.2,71,30.45,10.0,Calm,Calm,-,N/A,,Clear,0,2012-12-30 20:15:00
2:35 PM,46.4,37.4,71,30.46,10.0,Calm,Calm,-,N/A,,Clear,0,2012-12-30 20:35:00
2:55 PM,48.2,39.2,71,30.46,9.0,NNW,5.8,-,N/A,,Clear,340,2012-12-30 20:55:00
3:15 PM,48.2,39.2,71,30.46,10.0,WNW,4.6,-,N/A,,Clear,300,2012-12-30 21:15:00
3:35 PM,46.4,35.6,66,30.46,10.0,Calm,Calm,-,N/A,,Clear,0,2012-12-30 21:35:00
3:55 PM,46.4,37.4,71,30.45,9.0,NW,3.5,-,N/A,,Clear,320,2012-12-30 21:55:00
4:15 PM,44.6,35.6,71,30.44,9.0,Calm,Calm,-,N/A,,Partly Cloudy,0,2012-12-30 22:15:00
4:35 PM,42.8,35.6,76,30.44,9.0,Calm,Calm,-,N/A,,Clear,0,2012-12-30 22:35:00
4:55 PM,41.0,32.0,70,30.43,10.0,Calm,Calm,-,N/A,,Clear,0,2012-12-30 22:55:00
5:15 PM,37.4,32.0,81,30.43,9.0,Calm,Calm,-,N/A,,Clear,0,2012-12-30 23:15:00
5:35 PM,33.8,30.2,87,30.45,10.0,Calm,Calm,-,N/A,,Clear,0,2012-12-30 23:35:00
5:55 PM,32.0,30.2,93,30.44,10.0,North,-9999.0,-,N/A,,Clear,0,2012-12-30 23:55:00
6:15 PM,32.0,30.2,93,30.44,10.0,Calm,Calm,-,N/A,,Clear,0,2012-12-31 00:15:00
6:35 PM,32.0,30.2,93,30.43,10.0,North,-9999.0,-,N/A,,Clear,0,2012-12-31 00:35:00
6:55 PM,32.0,28.4,87,30.43,10.0,North,-9999.0,-,N/A,,Clear,0,2012-12-31 00:55:00
7:15 PM,32.0,28.4,87,30.43,10.0,Calm,Calm,-,N/A,,Clear,0,2012-12-31 01:15:00
7:35 PM,32.0,28.4,87,30.42,10.0,Calm,Calm,-,N/A,,Clear,0,2012-12-31 01:35:00
7:55 PM,32.0,30.2,93,30.42,9.0,Calm,Calm,-,N/A,,Clear,0,2012-12-31 01:55:00
8:15 PM,32.0,30.2,93,30.42,10.0,Calm,Calm,-,N/A,,Clear,0,2012-12-31 02:15:00
8:35 PM,32.0,30.2,93,30.43,10.0,North,-9999.0,-,N/A,,Clear,0,2012-12-31 02:35:00
8:55 PM,32.0,30.2,93,30.42,10.0,North,-9999.0,-,N/A,,Clear,0,2012-12-31 02:55:00
9:15 PM,32.0,30.2,93,30.41,10.0,Calm,Calm,-,N/A,,Clear,0,2012-12-31 03:15:00
9:35 PM,32.0,30.2,93,30.41,10.0,Calm,Calm,-,N/A,,Clear,0,2012-12-31 03:35:00
10:15 PM,32.0,30.2,93,30.41,10.0,North,-9999.0,-,N/A,,Clear,0,2012-12-31 04:15:00
10:35 PM,32.0,30.2,93,30.41,10.0,Calm,Calm,-,N/A,,Clear,0,2012-12-31 04:35:00
10:55 PM,33.8,30.2,87,30.40,10.0,Calm,Calm,-,N/A,,Clear,0,2012-12-31 04:55:00
11:15 PM,33.8,32.0,93,30.40,10.0,Calm,Calm,-,N/A,,Clear,0,2012-12-31 05:15:00
11:35 PM,33.8,32.0,93,30.40,10.0,Calm,Calm,-,N/A,,Clear,0,2012-12-31 05:35:00
11:55 PM,33.8,32.0,93,30.39,10.0,Calm,Calm,-,N/A,,Clear,0,2012-12-31 05:55:00